Theta_e
327 327 326 326 325 324 325 324 323 322 321 321 321 321 322 323 322 321 319 318 319 320 320 319 317 318 313 306 305 314 325 321 315 310 307 306 303 302 297 299 299 296 298 300 300 302 300
326 326 325 325 325 325 325 324 323 321 321 321 320 320 320 321 321 320 319 318 317 318 319 318 316 317 309 300 313 316 315 314 312 308 307 306 304 305 302 300 297 298 298 299 300 299 299
326 325 325 324 324 323 324 323 322 321 321 320 320 319 319 320 320 319 318 318 317 317 319 318 315 314 309 305 315 315 315 313 312 311 307 308 307 304 304 301 304 301 296 298 301 299 298
326 325 325 323 323 322 322 321 321 321 321 320 320 319 318 318 318 318 317 316 316 318 319 316 313 310 304 317 316 315 316 313 316 314 312 310 309 305 303 304 300 296 295 290 298 298 300
322 324 325 324 322 321 321 321 321 321 321 320 319 319 317 316 316 316 316 316 316 318 318 314 309 308 301 317 312 316 316 311 314 314 312 314 310 303 302 296 292 293 289 290 294 301 299
322 322 321 322 322 321 321 321 320 320 320 319 319 318 317 316 315 314 315 317 314 314 313 313 311 302 305 304 311 314 316 315 311 310 308 306 303 297 296 294 288 289 289 288 291 297 297
321 321 322 321 321 322 322 322 320 319 319 319 319 318 317 316 315 314 312 314 309 305 307 302 300 302 305 310 312 308 313 312 311 307 298 301 295 292 296 298 298 294 291 291 293 298 296
320 320 321 321 321 322 322 322 320 318 318 319 318 318 317 316 316 313 316 311 309 305 300 305 308 305 306 308 302 306 312 303 304 298 299 295 292 299 299 299 296 293 291 291 295 298 296
319 319 320 321 321 320 321 321 319 318 318 318 318 317 317 316 314 312 312 312 312 312 301 303 305 304 306 308 302 304 308 303 300 297 296 294 296 299 297 296 293 292 290 291 291 296 297
317 317 318 319 319 320 320 320 319 319 317 317 317 316 315 312 310 308 307 312 313 314 294 297 300 304 306 307 300 309 310 305 300 296 296 295 299 297 295 294 295 290 296 295 293 291 287
313 313 313 314 317 317 318 319 319 319 318 317 315 314 311 315 307 307 310 313 313 309 283 299 301 310 307 301 303 303 310 305 298 297 297 294 294 295 294 295 297 293 299 296 296 292 290
311 311 311 312 313 315 316 317 318 318 317 316 315 312 312 308 307 307 311 312 308 291 282 294 301 300 298 301 302 303 304 306 304 299 299 298 300 298 297 299 299 301 298 296 293 291 286
310 309 309 310 312 313 314 316 316 316 316 315 314 312 313 310 304 309 312 305 288 283 296 293 294 298 298 297 299 299 298 297 293 291 291 296 297 300 302 297 300 298 292 286 282 282 285
309 308 309 310 310 310 311 314 315 315 314 313 312 311 312 310 310 312 307 294 283 291 291 297 298 297 293 297 297 298 294 293 298 293 290 289 286 297 301 298 295 295 294 286 281 280 283
308 308 307 308 309 309 310 310 311 313 313 312 311 310 306 307 312 311 300 285 287 292 295 294 296 291 290 293 295 296 295 292 295 297 289 288 288 298 299 301 300 295 292 297 289 287 283
307 308 307 307 308 308 309 310 310 310 311 311 304 303 299 303 311 306 295 290 292 295 296 295 289 293 289 290 291 293 293 297 297 298 299 294 287 293 294 297 299 295 298 289 290 282 281
307 307 307 306 306 307 308 308 309 309 309 309 302 295 297 301 307 299 287 290 295 298 298 294 291 289 292 290 290 289 291 294 296 297 298 296 289 289 293 289 288 291 290 291 292 288 279
305 305 306 306 307 307 307 306 307 309 308 302 296 286 297 299 290 285 285 289 295 295 299 296 295 291 289 291 289 288 289 291 297 294 291 294 290 287 288 293 295 292 293 292 285 285 287
302 302 303 304 305 306 306 306 305 305 303 295 288 286 296 297 283 283 287 289 293 293 294 294 293 294 293 290 287 290 291 297 296 294 290 291 286 280 282 287 293 290 291 292 290 288 285
301 301 301 302 302 303 304 305 305 303 301 295 288 283 287 289 285 285 285 286 287 294 293 294 292 295 292 290 291 288 290 295 297 295 299 296 288 283 280 282 286 285 288 289 286 278 279
299 299 299 300 300 301 301 302 303 303 303 295 288 284 288 281 283 285 286 285 285 285 287 288 288 290 290 286 288 288 290 292 294 296 296 292 284 287 288 289 289 288 288 287 285 286 284
296 296 297 298 298 299 299 300 300 301 301 291 285 284 288 286 287 285 284 284 283 285 284 285 284 286 287 287 286 285 287 288 288 291 291 292 283 285 283 288 288 286 288 287 287 287 286
296 296 295 295 296 296 297 298 299 300 298 286 289 290 286 285 284 283 282 284 284 286 287 288 287 284 283 285 287 288 288 287 287 287 288 288 285 283 280 286 285 281 285 287 287 289 288
296 297 297 296 296 295 296 296 297 298 295 288 287 288 281 277 281 282 285 286 285 286 283 288 288 284 289 293 291 290 289 287 287 286 289 287 285 283 281 283 275 285 290 290 288 290 291
296 297 298 298 297 297 296 296 296 297 298 289 287 286 278 273 282 283 285 285 285 286 286 286 289 291 294 289 281 277 280 282 283 285 286 288 287 283 279 279 283 285 287 285 285 285 291
297 296 297 298 298 298 297 297 296 296 297 289 290 288 282 276 276 285 283 286 281 282 282 285 290 292 290 282 279 272 273 279 278 282 286 286 287 284 282 278 274 283 289 291 290 280 289
298 298 297 297 297 298 298 297 297 296 296 289 290 291 284 275 281 282 280 279 283 282 279 283 285 284 286 277 273 273 274 281 275 276 279 280 281 278 279 279 282 285 288 291 280 280 289
296 298 298 297 297 297 298 298 297 297 296 289 285 292 285 276 282 285 286 282 282 281 275 281 279 279 276 273 274 274 275 277 277 279 278 277 277 278 279 277 276 287 287 283 286 289 289
297 296 297 298 298 297 297 298 298 297 297 292 282 290 290 282 281 287 288 289 288 287 283 282 279 281 279 275 276 276 276 276 277 273 282 275 279 277 279 278 287 287 286 289 289 287 287
Wind_Speed
25 24 22 21 20 18 18 17 15 14 13 12 12 11 11 10 10 9 7 6 6 6 6 6 9 13 6 4 11 6 6 9 7 5 3 4 3 3 3 5 6 6 6 5 6 13 6
24 24 23 22 21 20 20 18 16 15 14 13 12 12 11 10 9 9 7 6 6 6 4 3 6 9 3 5 3 6 3 10 3 2 2 3 3 2 4 4 3 5 6 10 10 6 8
26 24 23 22 22 21 21 19 18 17 15 14 13 12 11 11 10 9 7 7 5 6 4 3 3 3 4 19 4 6 13 7 3 1 4 3 2 2 1 7 2 6 9 11 12 5 8
23 23 23 22 21 20 19 18 17 17 16 16 15 13 12 11 11 10 8 8 5 7 4 4 1 1 10 7 5 11 9 12 11 10 11 6 3 4 4 4 6 5 4 4 3 2 7
12 13 25 23 22 20 18 18 17 16 16 15 14 13 13 12 11 9 8 6 5 7 2 3 2 3 12 6 6 9 11 8 3 6 8 7 6 7 3 2 5 4 8 5 7 6 8
13 13 11 11 19 17 18 16 17 17 16 15 13 14 13 12 11 8 6 3 3 1 4 5 4 4 5 7 4 3 8 7 1 1 4 6 5 6 3 5 10 7 5 4 5 6 5
18 15 13 13 12 14 14 17 17 17 16 16 14 13 12 11 9 8 9 3 2 3 5 11 8 6 1 6 5 5 4 2 4 4 7 6 6 13 22 17 11 2 5 11 10 17 6
19 19 19 15 15 15 16 16 15 14 15 16 15 14 13 12 11 15 5 3 2 3 11 18 21 20 21 7 9 13 4 4 7 9 4 1 15 11 7 10 10 8 10 13 13 17 6
19 20 17 17 19 18 19 18 16 17 14 15 14 15 16 14 14 7 5 4 3 2 6 7 14 12 13 14 17 19 6 7 9 8 10 14 5 15 11 12 8 10 10 10 13 17 14
11 11 13 17 20 19 21 19 20 18 18 17 16 15 14 19 9 5 3 7 5 3 5 6 6 7 8 7 8 12 27 13 9 18 6 14 11 10 6 10 13 14 9 13 13 8 11
11 11 8 11 16 16 19 20 21 23 21 20 17 15 24 16 10 5 4 9 6 3 6 5 5 4 9 9 7 2 7 13 15 8 10 10 7 16 18 22 12 7 8 10 13 10 5
17 14 10 7 7 11 16 18 22 22 22 21 21 25 22 5 3 3 11 11 4 3 12 3 7 6 8 7 5 5 4 2 6 9 10 13 3 7 8 5 9 2 4 4 3 2 11
16 16 15 14 10 5 10 19 21 21 20 21 22 27 18 7 7 8 11 5 2 6 4 4 5 7 5 6 5 3 7 9 6 9 18 12 20 6 5 6 7 6 3 3 4 4 12
18 16 13 14 17 13 10 10 17 20 21 24 25 23 9 5 11 15 4 4 9 8 15 4 3 1 8 7 6 8 8 7 11 3 1 11 7 19 11 29 13 14 13 8 7 5 4
15 14 13 10 15 17 13 12 11 15 20 24 22 6 5 3 15 9 7 7 11 11 5 5 3 3 3 6 6 7 10 6 9 14 7 5 8 4 7 24 23 15 16 12 5 2 1
11 13 12 11 11 12 11 14 13 15 17 17 5 3 3 6 10 10 10 11 11 6 2 3 7 6 4 2 8 8 7 6 13 12 10 4 4 3 4 5 8 7 9 6 4 8 7
13 14 10 11 9 11 11 12 11 14 14 10 3 4 3 10 3 7 10 9 12 8 4 5 5 3 3 2 3 3 4 2 3 7 15 10 4 5 2 4 9 5 3 5 4 2 4
14 14 12 12 11 11 14 12 12 10 7 6 3 4 2 4 5 2 4 4 3 4 11 2 3 3 4 3 1 3 2 3 5 3 7 7 5 11 9 2 1 3 5 6 6 6 3
14 13 13 13 13 12 9 10 9 10 7 3 3 3 3 3 4 2 3 2 1 1 3 5 5 7 5 6 3 6 4 4 8 6 0 3 3 3 2 2 1 2 3 3 6 4 7
11 12 12 12 11 11 11 8 11 9 8 5 3 3 2 2 1 2 3 4 4 1 11 4 4 7 6 7 10 5 6 3 10 9 17 8 1 4 9 4 3 2 2 3 6 4 5
10 11 11 10 10 9 9 8 8 5 3 3 2 1 1 4 4 5 2 1 3 1 3 7 4 8 7 5 5 9 6 5 8 2 4 2 2 6 12 7 3 4 2 6 5 3 6
7 7 7 8 8 7 8 6 7 7 4 4 4 4 2 1 5 7 5 3 3 4 2 2 2 5 11 2 1 2 0 4 2 2 9 4 4 4 8 10 7 11 15 19 13 13 7
2 2 3 4 4 5 5 5 6 6 5 3 0 2 3 5 2 3 3 4 6 8 7 7 6 2 6 4 1 3 5 8 4 3 2 5 3 4 8 11 6 5 21 19 17 8 12
4 3 3 2 3 3 3 3 4 6 5 3 2 3 3 2 3 4 5 5 6 7 1 4 5 6 6 8 7 10 11 11 11 10 8 3 4 4 9 2 10 12 10 22 19 14 15
7 7 6 7 6 4 3 1 2 3 6 3 1 3 3 2 3 4 6 4 3 4 4 4 6 5 7 4 1 4 2 3 8 13 15 13 4 4 6 11 11 9 10 8 10 18 17
11 11 10 9 9 8 6 5 2 1 5 3 1 2 4 5 3 1 4 7 3 3 0 5 3 2 3 2 3 3 3 2 3 5 12 12 11 7 6 7 9 9 10 5 6 9 4
13 17 14 12 11 9 10 8 6 4 1 3 1 2 4 3 3 1 2 4 2 2 2 2 4 2 2 2 1 4 4 3 4 3 1 4 5 13 11 7 2 6 11 5 8 4 9
9 9 13 14 14 12 11 11 10 7 5 4 3 1 4 3 4 2 1 2 2 2 3 2 5 4 3 2 3 4 3 4 3 4 2 2 2 2 4 8 13 8 6 4 7 9 9
13 14 15 15 16 16 15 13 14 11 7 5 1 3 1 4 4 2 3 4 5 5 5 1 4 3 4 3 1 1 2 2 2 4 2 4 6 4 5 4 7 1 5 8 5 7 13
Wind_Direction
208 208 206 204 203 206 210 209 208 209 210 212 214 218 222 223 224 230 234 250 266 281 313 344 349 332 3 15 250 292 20 354 344 8 24 359 338 34 323 300 301 211 279 297 263 289 253
207 207 205 204 202 204 205 211 207 205 207 213 212 211 218 223 228 235 240 243 265 283 299 335 342 326 39 275 252 267 333 331 326 321 276 105 290 261 234 253 290 312 282 287 287 274 263
205 204 204 204 204 203 204 205 204 202 206 206 208 212 214 218 222 228 232 246 250 268 279 302 357 330 244 251 241 288 310 287 193 248 285 181 203 209 354 324 308 283 300 306 273 256 254
206 201 205 202 204 202 202 204 203 203 205 203 204 206 209 216 217 212 217 231 229 257 248 258 195 160 252 251 259 261 252 269 245 221 223 247 248 237 185 253 323 319 281 282 323 293 267
180 210 206 201 199 198 201 201 202 201 201 205 201 201 202 212 213 207 206 215 229 245 214 231 256 175 266 300 237 241 206 239 255 202 208 218 165 198 178 296 348 245 264 249 312 240 249
197 201 178 187 194 196 199 201 202 199 200 195 198 203 204 201 207 196 182 171 142 204 204 215 283 325 254 259 232 266 174 172 289 52 173 175 168 162 147 154 238 206 237 232 247 284 13
198 203 203 177 187 182 195 201 210 201 198 193 196 199 199 199 181 152 124 141 261 247 231 208 189 232 194 234 255 230 102 108 173 192 200 196 166 196 207 207 237 280 280 275 271 277 298
192 197 200 185 202 200 196 198 198 207 206 194 192 198 199 188 170 168 149 203 169 124 286 226 248 238 261 305 272 259 104 202 176 198 166 212 235 209 206 222 232 236 259 272 281 270 240
197 199 192 190 204 204 205 201 197 198 209 205 194 198 200 174 152 154 162 166 115 171 269 242 211 236 229 202 242 236 203 190 215 200 190 215 210 183 193 222 229 226 228 254 263 289 285
176 192 191 200 209 211 207 204 207 205 209 206 200 195 183 135 136 148 170 159 142 85 280 265 238 254 173 188 270 224 222 209 209 218 192 241 210 215 185 216 208 244 219 246 266 273 273
137 127 155 195 210 212 212 207 210 210 206 204 193 164 146 153 130 171 150 149 130 86 267 179 190 166 159 177 314 94 182 196 227 180 168 221 170 209 223 228 205 231 250 248 253 253 249
121 121 119 109 162 189 215 208 209 206 196 192 182 157 149 125 104 150 132 138 105 158 241 255 167 157 149 219 285 101 109 181 202 250 261 230 259 181 203 188 189 326 293 291 280 174 257
117 116 105 88 85 101 203 215 204 200 195 178 173 160 164 149 173 157 152 133 136 207 331 232 200 164 192 179 216 217 142 201 169 168 229 237 237 234 198 248 260 168 127 298 298 186 255
127 112 96 97 80 58 73 183 191 190 177 171 165 162 161 161 146 158 170 97 207 221 228 353 335 195 193 160 229 195 150 191 247 251 63 199 283 217 200 216 202 218 191 183 203 205 284
112 110 102 84 94 84 64 70 88 171 179 168 155 165 154 167 158 177 161 212 210 209 189 249 298 236 242 219 218 183 213 208 200 195 189 198 262 261 237 223 192 204 217 189 255 137 328
123 109 103 92 76 84 76 88 89 104 136 147 125 120 42 336 184 173 204 218 217 191 148 187 224 193 226 212 183 180 188 234 227 196 194 232 271 252 234 111 213 192 154 155 174 190 207
106 86 124 116 110 98 102 94 93 114 114 109 66 118 9 312 142 198 216 222 223 226 200 212 225 261 218 158 16 282 239 323 285 220 194 201 184 277 234 193 168 149 175 62 108 172 176
74 75 88 87 121 102 96 78 96 145 122 35 98 108 296 337 189 128 158 183 17 301 201 254 283 196 216 105 273 259 289 313 325 350 180 203 193 232 230 239 327 118 157 152 156 183 235
81 76 75 75 81 80 101 96 86 95 77 123 80 82 351 44 219 183 128 249 246 195 267 172 229 230 173 162 234 249 222 324 355 337 223 168 221 181 312 297 25 152 158 153 114 104 194
87 89 85 80 77 75 76 121 112 109 104 91 117 117 15 56 245 106 163 169 183 337 260 265 311 214 205 225 207 225 240 300 355 358 338 333 296 199 228 237 149 157 181 183 127 131 161
86 81 77 73 78 80 73 69 83 94 49 87 67 142 79 179 187 128 151 98 112 145 27 7 249 252 212 210 209 219 241 187 202 82 300 27 254 284 280 247 128 86 88 256 244 170 163
69 73 78 79 72 70 65 59 51 35 51 77 127 154 123 37 133 135 161 168 128 133 83 48 351 0 18 267 11 136 174 209 259 80 190 211 222 210 254 256 224 234 254 267 239 233 243
61 79 88 87 79 83 81 47 36 32 46 93 265 4 100 166 169 147 174 171 206 159 188 184 155 28 340 357 315 295 272 286 277 286 227 188 192 192 248 250 152 224 231 236 242 205 212
331 264 203 173 148 144 130 98 45 41 83 115 196 105 94 198 182 184 178 169 185 210 270 177 210 151 166 163 255 263 251 242 244 234 239 261 184 176 253 139 236 251 217 220 230 230 211
274 275 269 232 221 198 169 136 80 51 76 87 125 107 122 198 186 183 181 160 163 217 206 220 223 228 149 141 46 314 269 261 236 221 212 210 237 237 223 227 257 299 247 165 177 246 219
247 242 248 256 232 217 203 186 191 39 73 91 117 136 112 122 264 71 179 186 165 191 80 226 257 126 114 148 142 194 248 308 278 291 212 205 214 234 217 227 236 253 254 167 118 254 331
319 225 227 233 241 241 222 203 192 186 122 99 74 103 99 109 260 96 163 166 151 132 193 294 161 110 56 100 164 210 230 204 247 268 299 179 207 228 244 273 272 360 314 309 164 248 355
293 259 226 228 230 230 239 214 193 193 181 105 261 16 112 124 291 339 30 105 39 93 143 266 50 339 46 132 177 239 221 234 255 232 227 297 344 256 229 232 247 346 18 37 334 340 344
266 252 246 241 234 220 219 227 201 183 196 117 52 337 87 105 229 317 280 239 190 193 145 359 179 176 203 97 243 6 285 303 276 263 296 237 195 220 206 254 181 140 162 150 114 326 325